When you browse on this site, cookies collect data to enhance your experience and personalize the content and advertising you see.
Visit our Privacy Policy to learn more. By continuing to use the site, you agree to this use of cookies and data.
  • en France
  • Liste des pays
  • À 7 jours
  • Température de l'eau
  • Carte météo
  • Widgets météo
  • user-avatar
    Se connecter

    Météo par heure à Yulara

    Ce jour, 22 Août, Jeudi

    Heure Température Précipitation Vent Pression Humidité
    00:00 +7°C° 0 mm 4 m/s 725 mmHg 41%
    01:00 +7°C° 0 mm 4 m/s 725 mmHg 44%
    02:00 +6°C° 0 mm 4 m/s 725 mmHg 47%
    03:00 +5°C° 0 mm 4 m/s 725 mmHg 49%
    04:00 +5°C° 0 mm 4 m/s 725 mmHg 52%
    05:00 +5°C° 0 mm 4 m/s 725 mmHg 54%
    06:00 +4°C° 0 mm 4 m/s 724 mmHg 56%
    07:00 +7°C° 0 mm 5 m/s 725 mmHg 50%
    08:00 +9°C° 0 mm 5 m/s 725 mmHg 44%
    09:00 +13°C° 0 mm 6 m/s 726 mmHg 35%
    10:00 +15°C° 0 mm 6 m/s 725 mmHg 30%
    11:00 +19°C° 0 mm 6 m/s 725 mmHg 25%
    12:00 +21°C° 0 mm 7 m/s 724 mmHg 19%
    13:00 +22°C° 0 mm 6 m/s 724 mmHg 17%
    14:00 +23°C° 0 mm 6 m/s 723 mmHg 15%
    15:00 +23°C° 0 mm 5 m/s 723 mmHg 13%
    16:00 +21°C° 0 mm 4 m/s 722 mmHg 16%
    17:00 +18°C° 0 mm 3 m/s 722 mmHg 19%
    18:00 +16°C° 0 mm 3 m/s 722 mmHg 22%
    19:00 +14°C° 0 mm 3 m/s 722 mmHg 24%
    20:00 +13°C° 0 mm 3 m/s 722 mmHg 25%
    21:00 +12°C° 0 mm 4 m/s 723 mmHg 27%
    22:00 +11°C° 0 mm 4 m/s 723 mmHg 30%
    23:00 +11°C° 0 mm 4 m/s 723 mmHg 33%

    Demain, 23 Août, Vendredi

    Heure Température Précipitation Vent Pression Humidité
    00:00 +10°C° 0 mm 3 m/s 723 mmHg 36%
    01:00 +9°C° 0 mm 3 m/s 722 mmHg 39%
    02:00 +8°C° 0 mm 3 m/s 722 mmHg 42%
    03:00 +7°C° 0 mm 3 m/s 721 mmHg 45%
    04:00 +5°C° 0 mm 3 m/s 721 mmHg 47%
    05:00 +5°C° 0 mm 3 m/s 722 mmHg 48%
    06:00 +5°C° 0 mm 3 m/s 722 mmHg 50%
    07:00 +9°C° 0 mm 3 m/s 722 mmHg 43%
    08:00 +11°C° 0 mm 3 m/s 723 mmHg 36%
    09:00 +14°C° 0 mm 3 m/s 723 mmHg 29%
    10:00 +18°C° 0 mm 3 m/s 723 mmHg 25%
    11:00 +20°C° 0 mm 3 m/s 722 mmHg 21%
    12:00 +24°C° 0 mm 3 m/s 722 mmHg 16%
    13:00 +24°C° 0 mm 3 m/s 721 mmHg 15%
    14:00 +25°C° 0 mm 3 m/s 720 mmHg 13%
    15:00 +26°C° 0 mm 3 m/s 719 mmHg 11%
    16:00 +23°C° 0 mm 2 m/s 719 mmHg 20%
    17:00 +19°C° 0 mm 2 m/s 719 mmHg 28%
    18:00 +15°C° 0 mm 2 m/s 719 mmHg 37%
    19:00 +14°C° 0 mm 1 m/s 719 mmHg 39%
    20:00 +13°C° 0 mm 1 m/s 719 mmHg 41%
    21:00 +12°C° 0 mm 1 m/s 719 mmHg 43%
    22:00 +12°C° 0 mm 1 m/s 719 mmHg 44%
    23:00 +11°C° 0 mm 1 m/s 719 mmHg 45%

    Après-demain, 24 Août, Samedi

    Heure Température Précipitation Vent Pression Humidité
    00:00 +11°C° 0 mm 1 m/s 719 mmHg 46%
    01:00 +10°C° 0 mm 1 m/s 719 mmHg 48%
    02:00 +9°C° 0 mm 1 m/s 719 mmHg 49%
    03:00 +8°C° 0 mm 1 m/s 718 mmHg 51%
    04:00 +8°C° 0 mm 1 m/s 718 mmHg 53%
    05:00 +6°C° 0 mm 0 m/s 718 mmHg 55%
    06:00 +6°C° 0 mm 0 m/s 718 mmHg 57%
    07:00 +10°C° 0 mm 0 m/s 719 mmHg 42%
    08:00 +14°C° 0 mm 0 m/s 720 mmHg 28%
    09:00 +21°C° 0 mm 1 m/s 721 mmHg 14%
    10:00 +23°C° 0 mm 1 m/s 721 mmHg 13%
    11:00 +25°C° 0 mm 1 m/s 721 mmHg 11%
    12:00 +26°C° 0 mm 2 m/s 721 mmHg 9%
    13:00 +27°C° 0 mm 2 m/s 720 mmHg 9%
    14:00 +28°C° 0 mm 3 m/s 719 mmHg 9%
    15:00 +28°C° 0 mm 3 m/s 719 mmHg 10%
    16:00 +26°C° 0 mm 4 m/s 719 mmHg 12%
    17:00 +23°C° 0 mm 4 m/s 719 mmHg 14%
    18:00 +21°C° 0 mm 5 m/s 719 mmHg 16%
    19:00 +19°C° 0 mm 6 m/s 720 mmHg 23%
    20:00 +17°C° 0 mm 6 m/s 720 mmHg 30%
    21:00 +15°C° 0 mm 7 m/s 720 mmHg 37%
    22:00 +14°C° 0 mm 6 m/s 721 mmHg 44%
    23:00 +13°C° 0 mm 5 m/s 721 mmHg 50%

    25 Août, Dimanche

    Heure Température Précipitation Vent Pression Humidité
    00:00 +12°C° 0 mm 4 m/s 721 mmHg 56%
    01:00 +11°C° 0 mm 4 m/s 721 mmHg 61%
    02:00 +10°C° 0 mm 4 m/s 721 mmHg 66%
    03:00 +8°C° 0 mm 4 m/s 721 mmHg 70%
    04:00 +7°C° 0 mm 4 m/s 721 mmHg 72%
    05:00 +7°C° 0 mm 4 m/s 721 mmHg 74%
    06:00 +6°C° 0 mm 4 m/s 722 mmHg 77%
    07:00 +8°C° 0 mm 5 m/s 722 mmHg 68%
    08:00 +10°C° 0 mm 7 m/s 722 mmHg 59%
    09:00 +12°C° 0 mm 8 m/s 723 mmHg 50%
    10:00 +15°C° 0 mm 7 m/s 722 mmHg 44%
    11:00 +18°C° 0 mm 7 m/s 722 mmHg 38%
    12:00 +21°C° 0 mm 6 m/s 722 mmHg 32%
    13:00 +22°C° 0 mm 6 m/s 721 mmHg 29%
    14:00 +23°C° 0 mm 5 m/s 720 mmHg 27%
    15:00 +23°C° 0 mm 4 m/s 719 mmHg 24%
    16:00 +22°C° 0 mm 4 m/s 720 mmHg 27%
    17:00 +20°C° 0 mm 3 m/s 720 mmHg 30%
    18:00 +18°C° 0 mm 3 m/s 720 mmHg 32%
    19:00 +17°C° 0 mm 4 m/s 720 mmHg 35%
    20:00 +17°C° 0 mm 4 m/s 720 mmHg 37%
    21:00 +15°C° 0 mm 5 m/s 721 mmHg 40%
    22:00 +14°C° 0 mm 5 m/s 721 mmHg 44%
    23:00 +13°C° 0 mm 5 m/s 721 mmHg 48%

    26 Août, Lundi

    Heure Température Précipitation Vent Pression Humidité
    00:00 +10°C° 0 mm 5 m/s 721 mmHg 52%
    01:00 +10°C° 0 mm 5 m/s 721 mmHg 53%
    02:00 +9°C° 0 mm 5 m/s 721 mmHg 54%
    03:00 +8°C° 0 mm 5 m/s 721 mmHg 54%
    04:00 +7°C° 0 mm 5 m/s 721 mmHg 56%
    05:00 +6°C° 0 mm 5 m/s 721 mmHg 57%
    06:00 +6°C° 0 mm 5 m/s 722 mmHg 59%
    07:00 +8°C° 0 mm 6 m/s 722 mmHg 50%
    08:00 +10°C° 0 mm 7 m/s 722 mmHg 41%
    09:00 +12°C° 0 mm 8 m/s 723 mmHg 33%
    10:00 +15°C° 0 mm 7 m/s 722 mmHg 30%
    11:00 +18°C° 0 mm 7 m/s 722 mmHg 27%
    12:00 +21°C° 0 mm 6 m/s 722 mmHg 24%
    13:00 +22°C° 0 mm 5 m/s 721 mmHg 23%
    14:00 +23°C° 0 mm 4 m/s 720 mmHg 22%
    15:00 +25°C° 0 mm 3 m/s 720 mmHg 21%
    16:00 +22°C° 0 mm 3 m/s 720 mmHg 23%
    17:00 +21°C° 0 mm 3 m/s 720 mmHg 26%
    18:00 +19°C° 0 mm 3 m/s 720 mmHg 28%
    19:00 +18°C° 0 mm 4 m/s 721 mmHg 31%
    20:00 +16°C° 0 mm 5 m/s 721 mmHg 34%
    21:00 +14°C° 0 mm 6 m/s 722 mmHg 36%
    22:00 +13°C° 0 mm 6 m/s 722 mmHg 39%
    23:00 +11°C° 0 mm 6 m/s 722 mmHg 42%

    27 Août, Mardi

    Heure Température Précipitation Vent Pression Humidité
    00:00 +10°C° 0 mm 6 m/s 722 mmHg 45%
    01:00 +9°C° 0 mm 6 m/s 722 mmHg 44%
    02:00 +8°C° 0 mm 5 m/s 722 mmHg 43%
    03:00 +7°C° 0 mm 5 m/s 722 mmHg 43%
    04:00 +7°C° 0 mm 5 m/s 722 mmHg 42%
    05:00 +6°C° 0 mm 5 m/s 722 mmHg 41%
    06:00 +6°C° 0 mm 4 m/s 723 mmHg 40%
    07:00 +8°C° 0 mm 5 m/s 723 mmHg 35%
    08:00 +10°C° 0 mm 6 m/s 723 mmHg 30%
    09:00 +12°C° 0 mm 7 m/s 724 mmHg 26%
    10:00 +16°C° 0 mm 6 m/s 723 mmHg 24%
    11:00 +19°C° 0 mm 6 m/s 723 mmHg 22%
    12:00 +21°C° 0 mm 5 m/s 723 mmHg 20%
    13:00 +22°C° 0 mm 5 m/s 722 mmHg 20%
    14:00 +23°C° 0 mm 5 m/s 722 mmHg 19%
    15:00 +25°C° 0 mm 4 m/s 721 mmHg 19%
    16:00 +23°C° 0 mm 4 m/s 721 mmHg 21%
    17:00 +21°C° 0 mm 4 m/s 721 mmHg 24%
    18:00 +19°C° 0 mm 4 m/s 721 mmHg 26%
    19:00 +18°C° 0 mm 4 m/s 722 mmHg 28%
    20:00 +15°C° 0 mm 4 m/s 722 mmHg 30%
    21:00 +14°C° 0 mm 5 m/s 723 mmHg 33%
    22:00 +13°C° 0 mm 5 m/s 722 mmHg 35%
    23:00 +12°C° 0 mm 5 m/s 722 mmHg 37%
    Voir plus